CALSPHERE 4(A)

Last updated on Tue Feb 09 2021 07:01:52 GMT+0000 (Coordinated Universal Time)

1 01520U 65065H 21039.75297031 .00000042 00000-0 65294-4 0 9995 2 01520 90.0244 129.7920 0069481 214.0561 245.7401 13.35834200701747
UTC large
Height (km)
Speed (km/s)
/
Latitude / Longitude
Inclination (degrees)
Orbital Period (minutes)
Azimuth
Elevation
Range (km)
Doppler Factor

Next 0 passes for location: London (51.5072 / 0.1276)

Sorry there are no passes over London.